Tracking 19800 objects as of 23-Jul-2019
HD Live streaming from Space Station
objects crossing your sky now

XSS 10

Track XSS 10 now!
10-day predictions
XSS 10 is classified as:


NORAD ID: 27664
Int'l Code: 2003-005B
Perigee: 515.3 km
Apogee: 764.1 km
Inclination: 39.8 °
Period: 97.4 minutes
Semi major axis: 7010 km
RCS: 0.183 m2 (medium)
Launch date: January 29, 2003
Source: United States (US)
Launch site: AIR FORCE EASTERN TEST RANGE (AFETR)
aabbcc
Your satellite tracking list
Your tracking list is empty




NASA's NSSDC Master Catalog

Two Line Element Set (TLE):
1 27664U 03005B   19203.88947941 -.00000116 +00000-0 +38010-5 0  9994
2 27664 039.7508 018.9449 0177456 350.1865 009.5473 14.78969574888510
Source of the keplerian elements: AFSPC